This is the latest recevied weather packets stored in our database for station/object KY4GW. If no packets are shown the sender has not sent any weather packets the latest 10 day(s).
| Time | Temp. | Humidity | Pressure | Rain* | Wind** | Luminosity | Snow |
|---|---|---|---|---|---|---|---|
| 1777567466 | 12.78° C | 53% | 1019.6 hPa | 0 mm | - | 282 W/m² | - |
| 1777567164 | 12.78° C | 58% | 1019.6 hPa | 0 mm | - | 174 W/m² | - |
| 1777566862 | 12.22° C | 54% | 1019.6 hPa | 0 mm | - | 515 W/m² | - |
| 1777566559 | 11.67° C | 57% | 1019.6 hPa | 0 mm | - | 237 W/m² | - |
| 1777566256 | 11.67° C | 57% | 1019.6 hPa | 0 mm | - | 216 W/m² | - |
| 1777565954 | 11.67° C | 58% | 1019.6 hPa | 0 mm | - | 133 W/m² | - |
| 1777565649 | 11.67° C | 55% | 1020.1 hPa | 0 mm | - | 494 W/m² | - |
| 1777565346 | 11.67° C | 59% | 1020.1 hPa | 0 mm | - | 133 W/m² | - |
| 1777565042 | 11.67° C | 59% | 1020.1 hPa | 0 mm | - | 194 W/m² | - |
| 1777564737 | 11.67° C | 60% | 1020.1 hPa | 0 mm | - | 198 W/m² | - |
| 1777564432 | 11.67° C | 60% | 1020.1 hPa | 0 mm | - | 688 W/m² | - |
| 1777564129 | 12.22° C | 62% | 1020.1 hPa | 0 mm | - | 821 W/m² | - |
| 1777563824 | 11.67° C | 60% | 1020.1 hPa | 0 mm | - | 552 W/m² | - |
| 1777563522 | 11.67° C | 59% | 1020.1 hPa | 0 mm | - | 807 W/m² | - |
| 1777563220 | 11.11° C | 61% | 1020.1 hPa | 0 mm | - | 284 W/m² | - |
| 1777562918 | 11.11° C | 62% | 1020.1 hPa | 0 mm | - | 619 W/m² | - |
| 1777562613 | 10.56° C | 62% | 1020.1 hPa | 0 mm | - | 632 W/m² | - |
| 1777562313 | 10.56° C | 63% | 1020.1 hPa | 0 mm | - | 137 W/m² | - |
| 1777562009 | 11.11° C | 62% | 1020.1 hPa | 0 mm | - | 854 W/m² | - |
| 1777561706 | 11.11° C | 64% | 1020.1 hPa | 0 mm | - | 291 W/m² | - |
| 1777561401 | 10.56° C | 63% | 1020.1 hPa | 0 mm | - | 758 W/m² | - |
| 1777561097 | 10.56° C | 63% | 1019.6 hPa | 0 mm | - | 194 W/m² | - |
| 1777560793 | 10° C | 64% | 1019.6 hPa | 0 mm | - | 731 W/m² | - |
| 1777560490 | 10.56° C | 64% | 1019.6 hPa | 0 mm | - | 721 W/m² | - |
| 1777560188 | 10.56° C | 64% | 1019.6 hPa | 0 mm | - | 668 W/m² | - |
* Rain latest hour (hover to see other rain measurements)
** Current wind speed in m/s (hover to see current wind gust speed)